START_TIME,STEP,MOV.,H8,t_acc.,H43,t_acc.,M25,t_acc.,H9,t_acc.
1979-03-01 21:00:18.960 ,1,0,0.,12.0,0.,12.0,0.,12.0,0.,12.0
1979-03-01 21:00:30.960 ,1,0,1.,12.0,0.,12.0,0.,12.0,0.,12.0
1979-03-01 21:00:42.960 ,2,0,0.,12.0,0.,12.0,0.,12.0,0.,12.0
1979-03-01 21:00:54.960 ,2,0,0.,12.0,0.,12.0,0.,12.0,0.,12.0
1979-03-01 21:01:06.960 ,3,0,0.,12.0,0.,12.0,0.,12.0,0.,12.0
1979-03-01 21:01:18.960 ,3,0,0.,12.0,0.,12.0,0.,12.0,0.,12.0
1979-03-01 21:01:30.960 ,4,0,0.,12.0,0.,12.0,0.,12.0,0.,12.0
1979-03-01 21:01:42.960 ,4,0,0.,12.0,0.,12.0,0.,12.0,0.,12.0
1979-03-01 21:01:54.960 ,5,0,0.,12.0,0.,12.0,0.,12.0,0.,12.0
1979-03-01 21:02:06.960 ,5,0,0.,12.0,0.,12.0,0.,12.0,0.,12.0
1979-03-01 21:02:18.960 ,6,0,0.,12.0,0.,12.0,0.,12.0,0.,12.0
1979-03-01 21:02:30.960 ,6,0,0.,12.0,0.,12.0,0.,12.0,0.,12.0
1979-03-01 21:02:42.960 ,7,0,0.,12.0,0.,12.0,0.,12.0,0.,12.0
1979-03-01 21:02:54.960 ,7,0,0.,12.0,0.,12.0,0.,12.0,0.,12.0
1979-03-01 21:03:06.960 ,7,0,0.,12.0,0.,12.0,0.,12.0,0.,12.0
1979-03-01 21:03:18.960 ,7,0,0.,12.0,0.,12.0,0.,12.0,0.,12.0
1979-03-01 21:03:30.960 ,6,0,0.,12.0,0.,12.0,0.,12.0,0.,12.0
1979-03-01 21:03:42.960 ,6,0,0.,12.0,0.,12.0,0.,12.0,0.,12.0
1979-03-01 21:03:54.960 ,5,0,0.,12.0,0.,12.0,0.,12.0,0.,12.0
1979-03-01 21:04:06.960 ,5,0,0.,12.0,0.,12.0,0.,12.0,0.,12.0
1979-03-01 21:04:18.960 ,4,0,0.,12.0,0.,12.0,0.,12.0,0.,12.0
1979-03-01 21:04:30.960 ,4,0,0.,12.0,0.,12.0,0.,12.0,0.,12.0
1979-03-01 21:04:42.960 ,3,0,0.,12.0,0.,12.0,0.,12.0,0.,12.0
1979-03-01 21:04:54.960 ,3,0,1.,12.0,0.,12.0,0.,12.0,0.,12.0
1979-03-01 21:05:06.960 ,2,0,0.,12.0,0.,12.0,0.,12.0,0.,12.0
1979-03-01 21:05:18.960 ,2,0,0.,12.0,0.,12.0,0.,12.0,0.,12.0
1979-03-01 21:05:30.960 ,1,0,0.,12.0,0.,12.0,0.,12.0,0.,12.0
1979-03-01 21:05:42.960 ,1,0,0.,12.0,0.,12.0,0.,12.0,0.,12.0
1979-03-01 21:05:54.960 ,0,0,0.,12.0,0.,12.0,0.,12.0,0.,12.0
1979-03-01 21:06:06.960 ,0,0,1.,12.0,0.,12.0,0.,12.0,0.,12.0
1979-03-01 21:06:18.960 ,0,0,0.,12.0,0.,12.0,0.,12.0,0.,12.0
1979-03-01 21:06:30.960 ,0,0,0.,12.0,0.,12.0,0.,12.0,0.,12.0
1979-03-01 21:06:42.960 ,1,0,0.,12.0,0.,12.0,0.,12.0,0.,12.0
1979-03-01 21:06:54.960 ,1,0,0.,12.0,0.,12.0,0.,12.0,0.,12.0
1979-03-01 21:07:06.960 ,2,0,0.,12.0,0.,12.0,0.,12.0,0.,12.0
1979-03-01 21:07:18.960 ,2,0,0.,12.0,0.,12.0,0.,12.0,0.,12.0
1979-03-01 21:07:30.960 ,3,0,0.,12.0,0.,12.0,0.,12.0,0.,12.0
1979-03-01 21:07:42.960 ,3,0,0.,12.0,0.,12.0,0.,12.0,0.,12.0
1979-03-01 21:07:54.960 ,4,0,0.,12.0,0.,12.0,0.,12.0,0.,12.0
1979-03-01 21:08:06.960 ,4,0,0.,12.0,0.,12.0,0.,12.0,0.,12.0
1979-03-01 21:08:18.960 ,5,0,1.,12.0,0.,12.0,0.,12.0,0.,12.0
1979-03-01 21:08:30.960 ,5,0,0.,12.0,0.,12.0,0.,12.0,0.,12.0
1979-03-01 21:08:42.960 ,6,0,1.,12.0,0.,12.0,0.,12.0,0.,12.0
1979-03-01 21:08:54.960 ,6,0,1.,12.0,0.,12.0,0.,12.0,0.,12.0
1979-03-01 21:09:06.960 ,7,0,0.,12.0,0.,12.0,0.,12.0,0.,12.0
1979-03-01 21:09:18.960 ,7,0,0.,12.0,0.,12.0,0.,12.0,0.,12.0
1979-03-01 21:09:30.960 ,7,0,0.,12.0,0.,12.0,0.,12.0,0.,12.0
1979-03-01 21:09:42.960 ,7,0,0.,12.0,0.,12.0,0.,12.0,0.,12.0
1979-03-01 21:09:54.960 ,6,0,0.,12.0,0.,12.0,0.,12.0,0.,12.0
1979-03-01 21:10:06.960 ,6,0,1.,12.0,0.,12.0,0.,12.0,0.,12.0
1979-03-01 21:10:18.960 ,5,0,0.,12.0,0.,12.0,0.,12.0,0.,12.0
1979-03-01 21:10:30.960 ,5,0,0.,12.0,0.,12.0,0.,12.0,0.,12.0
1979-03-01 21:10:42.960 ,4,0,1.,12.0,0.,12.0,0.,12.0,0.,12.0
1979-03-01 21:10:54.960 ,4,0,0.,12.0,0.,12.0,0.,12.0,0.,12.0
1979-03-01 21:11:06.960 ,3,0,0.,12.0,0.,12.0,0.,12.0,0.,12.0
1979-03-01 21:11:18.960 ,3,0,0.,12.0,0.,12.0,0.,12.0,0.,12.0
1979-03-01 21:11:30.960 ,2,0,0.,12.0,0.,12.0,0.,12.0,0.,12.0
1979-03-01 21:11:42.960 ,2,0,0.,12.0,0.,12.0,0.,12.0,0.,12.0
1979-03-01 21:11:54.960 ,1,0,0.,12.0,0.,12.0,0.,12.0,0.,12.0
1979-03-01 21:12:06.960 ,1,0,0.,12.0,0.,12.0,0.,12.0,0.,12.0
1979-03-01 21:12:18.960 ,0,0,0.,12.0,0.,12.0,0.,12.0,0.,12.0
1979-03-01 21:12:30.960 ,0,0,0.,12.0,0.,12.0,0.,12.0,0.,12.0
1979-03-01 21:12:42.960 ,0,0,0.,12.0,0.,12.0,0.,12.0,0.,12.0
1979-03-01 21:12:54.960 ,0,0,0.,12.0,0.,12.0,0.,12.0,0.,12.0
1979-03-01 21:13:06.960 ,1,0,0.,12.0,0.,12.0,0.,12.0,0.,12.0
1979-03-01 21:13:18.960 ,1,0,0.,12.0,0.,12.0,0.,12.0,0.,12.0
1979-03-01 21:13:30.960 ,2,0,0.,12.0,0.,12.0,0.,12.0,0.,12.0
1979-03-01 21:13:42.960 ,2,0,0.,12.0,0.,12.0,0.,12.0,0.,12.0
1979-03-01 21:13:54.960 ,3,0,0.,12.0,0.,12.0,0.,12.0,0.,12.0
1979-03-01 21:14:06.960 ,3,0,0.,12.0,0.,12.0,0.,12.0,0.,12.0
1979-03-01 21:14:18.960 ,4,0,0.,12.0,0.,12.0,0.,12.0,0.,12.0
1979-03-01 21:14:30.960 ,4,0,0.,12.0,0.,12.0,0.,12.0,0.,12.0
1979-03-01 21:14:42.960 ,5,0,0.,12.0,0.,12.0,0.,12.0,0.,12.0
1979-03-01 21:14:54.960 ,5,0,0.,12.0,0.,12.0,0.,12.0,0.,12.0
1979-03-01 21:15:06.960 ,6,0,0.,12.0,0.,12.0,0.,12.0,0.,12.0
1979-03-01 21:15:18.960 ,6,0,0.,12.0,0.,12.0,0.,12.0,0.,12.0
1979-03-01 21:15:30.960 ,7,0,0.,12.0,0.,12.0,0.,12.0,0.,12.0
1979-03-01 21:15:42.960 ,7,0,0.,12.0,0.,12.0,0.,12.0,0.,12.0
1979-03-01 21:15:54.960 ,7,0,0.,12.0,0.,12.0,0.,12.0,0.,12.0
1979-03-01 21:16:06.960 ,7,0,0.,12.0,0.,12.0,0.,12.0,0.,12.0
1979-03-01 21:16:18.960 ,6,0,0.,12.0,0.,12.0,0.,12.0,0.,12.0
1979-03-01 21:16:30.960 ,6,0,0.,12.0,0.,12.0,0.,12.0,0.,12.0
1979-03-01 21:16:42.960 ,5,0,0.,12.0,0.,12.0,0.,12.0,0.,12.0
1979-03-01 21:16:54.960 ,5,0,0.,12.0,0.,12.0,0.,12.0,0.,12.0
1979-03-01 21:17:06.960 ,4,0,1.,12.0,0.,12.0,0.,12.0,0.,12.0
1979-03-01 21:17:18.960 ,4,0,1.,12.0,0.,12.0,0.,12.0,0.,12.0
1979-03-01 21:17:30.960 ,3,0,0.,12.0,0.,12.0,0.,12.0,0.,12.0
1979-03-01 21:17:42.960 ,3,0,0.,12.0,0.,12.0,0.,12.0,0.,12.0
1979-03-01 21:17:54.960 ,2,0,1.,12.0,0.,12.0,0.,12.0,0.,12.0
1979-03-01 21:18:06.960 ,2,0,0.,12.0,0.,12.0,0.,12.0,0.,12.0
1979-03-01 21:18:18.960 ,1,0,0.,12.0,0.,12.0,0.,12.0,0.,12.0
1979-03-01 21:18:30.960 ,1,0,0.,12.0,0.,12.0,0.,12.0,0.,12.0
1979-03-01 21:18:42.960 ,0,0,0.,12.0,0.,12.0,0.,12.0,0.,12.0
1979-03-01 21:18:54.960 ,0,0,0.,12.0,0.,12.0,0.,12.0,0.,12.0
1979-03-01 21:19:06.960 ,0,0,1.,12.0,0.,12.0,0.,12.0,0.,12.0
1979-03-01 21:19:18.960 ,0,0,0.,12.0,0.,12.0,0.,12.0,0.,12.0
1979-03-01 21:19:30.960 ,1,0,0.,12.0,0.,12.0,0.,12.0,0.,12.0
1979-03-01 21:19:42.960 ,1,0,0.,12.0,0.,12.0,0.,12.0,0.,12.0
1979-03-01 21:19:54.960 ,2,0,0.,12.0,0.,12.0,0.,12.0,0.,12.0
1979-03-01 21:20:06.960 ,2,0,1.,12.0,0.,12.0,0.,12.0,0.,12.0
1979-03-01 21:20:18.960 ,3,0,0.,12.0,0.,12.0,0.,12.0,0.,12.0
1979-03-01 21:20:30.960 ,3,0,0.,12.0,0.,12.0,0.,12.0,0.,12.0
1979-03-01 21:20:42.960 ,4,0,0.,12.0,0.,12.0,0.,12.0,0.,12.0
1979-03-01 21:20:54.960 ,4,0,1.,12.0,0.,12.0,0.,12.0,0.,12.0
1979-03-01 21:21:06.960 ,5,0,1.,12.0,0.,12.0,0.,12.0,0.,12.0
1979-03-01 21:21:18.960 ,5,0,1.,12.0,0.,12.0,0.,12.0,0.,12.0
1979-03-01 21:21:54.960 ,7,0,0.,12.0,0.,12.0,0.,12.0,0.,12.0
1979-03-01 21:22:06.960 ,7,0,0.,12.0,0.,12.0,0.,12.0,0.,12.0
1979-03-01 21:22:18.960 ,7,0,0.,12.0,0.,12.0,0.,12.0,0.,12.0
1979-03-01 21:22:30.960 ,7,0,0.,12.0,0.,12.0,0.,12.0,0.,12.0
1979-03-01 21:22:42.960 ,6,0,0.,12.0,0.,12.0,0.,12.0,0.,12.0
1979-03-01 21:22:54.960 ,6,0,0.,12.0,0.,12.0,0.,12.0,0.,12.0
1979-03-01 21:23:06.960 ,0,0,2.,12.0,0.,12.0,0.,12.0,0.,12.0
1979-03-01 21:23:18.960 ,0,0,0.,12.0,0.,12.0,0.,12.0,0.,12.0
1979-03-01 21:23:30.960 ,0,0,0.,12.0,0.,12.0,0.,12.0,0.,12.0
1979-03-01 21:23:42.960 ,0,0,1.,12.0,0.,12.0,0.,12.0,0.,12.0
1979-03-01 21:23:54.960 ,3,0,0.,12.0,0.,12.0,0.,12.0,0.,12.0
1979-03-01 21:24:06.960 ,3,0,0.,12.0,0.,12.0,0.,12.0,0.,12.0
1979-03-01 21:24:18.960 ,2,0,0.,12.0,0.,12.0,0.,12.0,0.,12.0
1979-03-01 21:24:30.960 ,2,0,0.,12.0,0.,12.0,0.,12.0,0.,12.0
1979-03-01 21:24:42.960 ,1,0,0.,12.0,0.,12.0,0.,12.0,0.,12.0
1979-03-01 21:24:54.960 ,1,0,0.,12.0,0.,12.0,0.,12.0,0.,12.0
1979-03-01 21:25:06.960 ,0,0,1.,12.0,0.,12.0,0.,12.0,0.,12.0
1979-03-01 21:25:18.960 ,0,0,0.,12.0,0.,12.0,0.,12.0,0.,12.0
1979-03-01 21:25:30.960 ,0,0,0.,12.0,0.,12.0,0.,12.0,0.,12.0
1979-03-01 21:25:42.960 ,0,0,0.,12.0,0.,12.0,0.,12.0,0.,12.0
1979-03-01 21:25:54.960 ,1,0,0.,12.0,0.,12.0,0.,12.0,0.,12.0
1979-03-01 21:26:06.960 ,1,0,0.,12.0,0.,12.0,0.,12.0,0.,12.0
1979-03-01 21:26:18.960 ,2,0,0.,12.0,0.,12.0,0.,12.0,0.,12.0
1979-03-01 21:26:30.960 ,2,0,0.,12.0,0.,12.0,0.,12.0,0.,12.0
1979-03-01 21:26:42.960 ,3,0,0.,12.0,0.,12.0,0.,12.0,0.,12.0
1979-03-01 21:26:54.960 ,3,0,1.,12.0,0.,12.0,0.,12.0,0.,12.0
1979-03-01 21:27:06.960 ,4,0,0.,12.0,0.,12.0,0.,12.0,0.,12.0
1979-03-01 21:27:18.960 ,4,0,1.,12.0,0.,12.0,0.,12.0,0.,12.0
1979-03-01 21:27:30.960 ,5,0,0.,12.0,0.,12.0,0.,12.0,0.,12.0
1979-03-01 21:27:42.960 ,5,0,0.,12.0,0.,12.0,0.,12.0,0.,12.0
1979-03-01 21:27:54.960 ,6,0,1.,12.0,0.,12.0,0.,12.0,0.,12.0
1979-03-01 21:28:06.960 ,6,0,0.,12.0,0.,12.0,0.,12.0,0.,12.0
1979-03-01 21:28:18.960 ,7,0,0.,12.0,0.,12.0,0.,12.0,0.,12.0
1979-03-01 21:28:30.960 ,7,0,0.,12.0,0.,12.0,0.,12.0,0.,12.0
1979-03-01 21:28:42.960 ,7,0,0.,12.0,0.,12.0,0.,12.0,0.,12.0
1979-03-01 21:28:54.960 ,7,0,0.,12.0,0.,12.0,0.,12.0,0.,12.0
1979-03-01 21:29:06.960 ,6,0,0.,12.0,0.,12.0,0.,12.0,0.,12.0
1979-03-01 21:29:18.960 ,6,0,0.,12.0,0.,12.0,0.,12.0,0.,12.0
1979-03-01 21:29:30.960 ,5,0,1.,12.0,0.,12.0,0.,12.0,0.,12.0
1979-03-01 21:29:42.960 ,5,0,0.,12.0,0.,12.0,0.,12.0,0.,12.0
1979-03-01 21:29:54.960 ,4,0,1.,12.0,0.,12.0,0.,12.0,0.,12.0
1979-03-01 21:30:06.960 ,4,0,2.,12.0,0.,12.0,0.,12.0,0.,12.0
1979-03-01 21:30:18.960 ,3,0,0.,12.0,0.,12.0,0.,12.0,0.,12.0
1979-03-01 21:30:30.960 ,3,0,0.,12.0,0.,12.0,0.,12.0,0.,12.0
1979-03-01 21:30:42.960 ,2,0,0.,12.0,0.,12.0,0.,12.0,0.,12.0
1979-03-01 21:30:54.960 ,2,0,0.,12.0,0.,12.0,0.,12.0,0.,12.0
1979-03-01 21:31:06.960 ,1,0,0.,12.0,0.,12.0,0.,12.0,0.,12.0
1979-03-01 21:31:18.960 ,1,0,0.,12.0,0.,12.0,0.,12.0,0.,12.0
1979-03-01 21:31:30.960 ,0,0,0.,12.0,0.,12.0,0.,12.0,0.,12.0
1979-03-01 21:31:42.960 ,0,0,0.,12.0,0.,12.0,0.,12.0,0.,12.0
1979-03-01 21:31:54.960 ,0,0,0.,12.0,0.,12.0,0.,12.0,0.,12.0
1979-03-01 21:32:06.960 ,0,0,0.,12.0,0.,12.0,0.,12.0,0.,12.0
1979-03-01 21:32:18.960 ,1,0,0.,12.0,0.,12.0,0.,12.0,0.,12.0
1979-03-01 21:32:30.960 ,1,0,1.,12.0,0.,12.0,0.,12.0,0.,12.0
1979-03-01 21:32:42.960 ,2,0,0.,12.0,0.,12.0,0.,12.0,0.,12.0
1979-03-01 21:32:54.960 ,2,0,1.,12.0,0.,12.0,0.,12.0,0.,12.0
1979-03-01 21:33:06.960 ,3,0,0.,12.0,0.,12.0,0.,12.0,0.,12.0
1979-03-01 21:33:18.960 ,3,0,0.,12.0,0.,12.0,0.,12.0,0.,12.0
1979-03-01 21:33:30.960 ,4,0,0.,12.0,0.,12.0,0.,12.0,0.,12.0
1979-03-01 21:33:42.960 ,4,0,1.,12.0,0.,12.0,0.,12.0,0.,12.0
1979-03-01 21:33:54.960 ,5,0,0.,12.0,0.,12.0,0.,12.0,0.,12.0
1979-03-01 21:34:06.960 ,5,0,0.,12.0,0.,12.0,0.,12.0,0.,12.0
1979-03-01 21:34:18.960 ,6,0,0.,12.0,0.,12.0,0.,12.0,0.,12.0
1979-03-01 21:34:30.960 ,6,0,0.,12.0,0.,12.0,0.,12.0,0.,12.0
1979-03-01 21:34:42.960 ,7,0,0.,12.0,0.,12.0,0.,12.0,0.,12.0
1979-03-01 21:34:54.960 ,7,0,0.,12.0,0.,12.0,0.,12.0,0.,12.0
1979-03-01 21:35:06.960 ,7,0,0.,12.0,0.,12.0,0.,12.0,0.,12.0
1979-03-01 21:35:18.960 ,7,0,0.,12.0,0.,12.0,0.,12.0,0.,12.0
1979-03-01 21:35:30.960 ,6,0,0.,12.0,0.,12.0,0.,12.0,0.,12.0
1979-03-01 21:35:42.960 ,6,0,0.,12.0,0.,12.0,0.,12.0,0.,12.0
1979-03-01 21:35:54.960 ,5,0,0.,12.0,0.,12.0,0.,12.0,0.,12.0
1979-03-01 21:36:06.960 ,5,0,1.,12.0,0.,12.0,0.,12.0,0.,12.0
1979-03-01 21:36:18.960 ,4,0,0.,12.0,0.,12.0,0.,12.0,0.,12.0
1979-03-01 21:36:30.960 ,4,0,2.,12.0,0.,12.0,0.,12.0,0.,12.0
1979-03-01 21:36:42.960 ,3,0,0.,12.0,0.,12.0,0.,12.0,0.,12.0
1979-03-01 21:36:54.960 ,3,0,1.,12.0,0.,12.0,0.,12.0,0.,12.0
1979-03-01 21:37:06.960 ,2,0,0.,12.0,0.,12.0,0.,12.0,0.,12.0
1979-03-01 21:37:18.960 ,2,0,0.,12.0,0.,12.0,0.,12.0,0.,12.0
1979-03-01 21:37:30.960 ,1,0,0.,12.0,0.,12.0,0.,12.0,0.,12.0
1979-03-01 21:37:42.960 ,1,0,0.,12.0,0.,12.0,0.,12.0,0.,12.0
1979-03-01 21:37:54.960 ,0,0,1.,12.0,0.,12.0,0.,12.0,0.,12.0
1979-03-01 21:38:06.960 ,0,0,0.,12.0,0.,12.0,0.,12.0,0.,12.0
1979-03-01 21:38:18.960 ,0,0,0.,12.0,0.,12.0,0.,12.0,0.,12.0
1979-03-01 21:38:30.960 ,0,0,0.,12.0,0.,12.0,0.,12.0,0.,12.0
1979-03-01 21:38:42.960 ,1,0,1.,12.0,0.,12.0,0.,12.0,0.,12.0
1979-03-01 21:38:54.960 ,1,0,0.,12.0,0.,12.0,0.,12.0,0.,12.0
1979-03-01 21:39:06.960 ,2,0,0.,12.0,0.,12.0,0.,12.0,0.,12.0
1979-03-01 21:39:18.960 ,2,0,0.,12.0,0.,12.0,0.,12.0,0.,12.0
1979-03-01 21:39:30.960 ,3,0,0.,12.0,0.,12.0,0.,12.0,0.,12.0
1979-03-01 21:39:42.960 ,3,0,1.,12.0,0.,12.0,0.,12.0,0.,12.0
1979-03-01 21:39:54.960 ,4,0,1.,12.0,0.,12.0,0.,12.0,0.,12.0
1979-03-01 21:40:06.960 ,4,0,1.,12.0,0.,12.0,0.,12.0,0.,12.0
1979-03-01 21:40:18.960 ,5,0,0.,12.0,0.,12.0,0.,12.0,0.,12.0
1979-03-01 21:40:30.960 ,5,0,1.,12.0,0.,12.0,0.,12.0,0.,12.0
1979-03-01 21:40:42.960 ,6,0,1.,12.0,0.,12.0,0.,12.0,0.,12.0
1979-03-01 21:40:54.960 ,6,0,5.,12.0,0.,12.0,0.,12.0,0.,12.0
1979-03-01 21:41:06.960 ,7,0,3.,12.0,0.,12.0,0.,12.0,0.,12.0
1979-03-01 21:41:18.960 ,7,0,0.,12.0,0.,12.0,0.,12.0,0.,12.0
1979-03-01 21:41:30.960 ,7,0,0.,12.0,0.,12.0,0.,12.0,0.,12.0
1979-03-01 21:41:42.960 ,7,0,0.,12.0,0.,12.0,0.,12.0,0.,12.0
1979-03-01 21:41:54.960 ,0,0,0.,12.0,0.,12.0,0.,12.0,0.,12.0
1979-03-01 21:42:06.960 ,0,0,8.,12.0,0.,12.0,0.,12.0,0.,12.0
1979-03-01 21:42:39.360 ,0,0,,0,,0,,0,,0
1979-03-01 21:42:51.360 ,0,0,,0,,0,,0,,0
1979-03-01 21:42:42.960 ,4,0,1.,12.0,0.,12.0,0.,12.0,0.,12.0
1979-03-01 21:42:54.960 ,4,0,1.,12.0,0.,12.0,0.,12.0,0.,12.0
1979-03-01 21:43:06.960 ,3,0,1.,12.0,0.,12.0,0.,12.0,0.,12.0
1979-03-01 21:43:18.960 ,3,0,5.,12.0,0.,12.0,0.,12.0,0.,12.0
1979-03-01 21:43:30.960 ,2,0,0.,12.0,0.,12.0,0.,12.0,0.,12.0
1979-03-01 21:43:42.960 ,2,0,0.,12.0,0.,12.0,0.,12.0,0.,12.0
1979-03-01 21:43:54.960 ,1,0,2.,12.0,0.,12.0,0.,12.0,0.,12.0
1979-03-01 21:44:06.960 ,1,0,0.,12.0,0.,12.0,0.,12.0,0.,12.0
1979-03-01 21:44:18.960 ,0,0,0.,12.0,0.,12.0,0.,12.0,0.,12.0
1979-03-01 21:44:30.960 ,0,0,1.,12.0,0.,12.0,0.,12.0,0.,12.0
1979-03-01 21:44:42.960 ,0,0,1.,12.0,0.,12.0,0.,12.0,0.,12.0
1979-03-01 21:44:54.960 ,0,0,2.,12.0,0.,12.0,0.,12.0,0.,12.0
1979-03-01 21:45:06.960 ,1,0,2.,12.0,0.,12.0,0.,12.0,0.,12.0
1979-03-01 21:45:18.960 ,1,0,0.,12.0,0.,12.0,0.,12.0,0.,12.0
1979-03-01 21:45:30.960 ,2,0,0.,12.0,0.,12.0,0.,12.0,0.,12.0
1979-03-01 21:45:42.960 ,2,0,0.,12.0,0.,12.0,0.,12.0,0.,12.0
1979-03-01 21:45:54.960 ,3,0,0.,12.0,0.,12.0,0.,12.0,0.,12.0
1979-03-01 21:46:06.960 ,3,0,1.,12.0,0.,12.0,0.,12.0,0.,12.0
1979-03-01 21:46:18.960 ,4,0,1.,12.0,0.,12.0,0.,12.0,0.,12.0
1979-03-01 21:46:30.960 ,4,0,2.,12.0,0.,12.0,0.,12.0,0.,12.0
1979-03-01 21:46:42.960 ,5,0,2.,12.0,0.,12.0,0.,12.0,0.,12.0
1979-03-01 21:46:54.960 ,5,0,2.,12.0,0.,12.0,0.,12.0,0.,12.0
1979-03-01 21:47:06.960 ,6,0,0.,12.0,0.,12.0,0.,12.0,0.,12.0
1979-03-01 21:47:18.960 ,6,0,1.,12.0,0.,12.0,0.,12.0,0.,12.0
1979-03-01 21:47:30.960 ,7,0,0.,12.0,0.,12.0,0.,12.0,0.,12.0
1979-03-01 21:47:42.960 ,7,0,0.,12.0,0.,12.0,0.,12.0,0.,12.0
1979-03-01 21:47:54.960 ,7,0,0.,12.0,0.,12.0,0.,12.0,0.,12.0
1979-03-01 21:48:06.960 ,7,0,0.,12.0,0.,12.0,0.,12.0,0.,12.0
1979-03-01 21:48:18.960 ,6,0,1.,12.0,0.,12.0,0.,12.0,0.,12.0
1979-03-01 21:48:30.960 ,6,0,1.,12.0,0.,12.0,0.,12.0,0.,12.0
1979-03-01 21:48:42.960 ,5,0,6.,12.0,0.,12.0,0.,12.0,0.,12.0
1979-03-01 21:48:54.960 ,5,0,7.,12.0,0.,12.0,0.,12.0,0.,12.0
1979-03-01 21:49:06.960 ,0,0,6.,12.0,0.,12.0,0.,12.0,0.,12.0
1979-03-01 21:49:18.960 ,0,0,,0,,0,,0,,0
1979-03-01 21:49:41.160 ,0,0,,0,,0,,0,,0
1979-03-01 21:49:53.160 ,0,0,3.,12.0,0.,12.0,0.,12.0,0.,12.0
1979-03-01 21:49:54.960 ,2,0,2.,12.0,0.,12.0,0.,12.0,0.,12.0
1979-03-01 21:50:06.960 ,2,0,0.,12.0,0.,12.0,0.,12.0,0.,12.0
1979-03-01 21:50:18.960 ,1,0,1.,12.0,0.,12.0,0.,12.0,0.,12.0
1979-03-01 21:50:30.960 ,1,0,1.,12.0,0.,12.0,0.,12.0,0.,12.0
1979-03-01 21:50:42.960 ,0,0,0.,12.0,0.,12.0,0.,12.0,0.,12.0
1979-03-01 21:50:54.960 ,0,0,1.,12.0,0.,12.0,0.,12.0,0.,12.0
1979-03-01 21:51:06.960 ,0,0,0.,12.0,0.,12.0,0.,12.0,0.,12.0
1979-03-01 21:51:18.960 ,0,0,2.,12.0,0.,12.0,0.,12.0,0.,12.0
1979-03-01 21:51:30.960 ,1,0,0.,12.0,0.,12.0,0.,12.0,0.,12.0
1979-03-01 21:51:42.960 ,1,0,3.,12.0,0.,12.0,0.,12.0,0.,12.0
1979-03-01 21:51:54.960 ,2,0,0.,12.0,0.,12.0,0.,12.0,0.,12.0
1979-03-01 21:52:06.960 ,2,0,1.,12.0,0.,12.0,0.,12.0,0.,12.0
1979-03-01 21:52:42.960 ,0,0,4.,12.0,0.,12.0,0.,12.0,0.,12.0
1979-03-01 21:52:54.960 ,0,0,7.,12.0,0.,12.0,0.,12.0,0.,12.0
1979-03-01 21:53:06.960 ,5,0,8.,12.0,0.,12.0,0.,12.0,0.,12.0
1979-03-01 21:53:18.960 ,5,0,5.,12.0,0.,12.0,0.,12.0,0.,12.0
1979-03-01 21:53:30.960 ,6,0,9.,12.0,0.,12.0,0.,12.0,0.,12.0
1979-03-01 21:53:42.960 ,6,0,7.,12.0,0.,12.0,0.,12.0,0.,12.0
1979-03-01 21:53:54.960 ,7,0,5.,12.0,0.,12.0,0.,12.0,0.,12.0
1979-03-01 21:54:06.960 ,7,0,0.,12.0,0.,12.0,0.,12.0,0.,12.0
1979-03-01 21:54:18.960 ,7,0,0.,12.0,0.,12.0,0.,12.0,0.,12.0
1979-03-01 21:54:30.960 ,7,0,0.,12.0,0.,12.0,0.,12.0,0.,12.0
1979-03-01 21:54:42.960 ,6,0,0.,12.0,0.,12.0,0.,12.0,0.,12.0
1979-03-01 21:54:54.960 ,6,0,7.,12.0,0.,12.0,0.,12.0,0.,12.0
1979-03-01 21:55:06.960 ,5,0,10.,12.0,0.,12.0,0.,12.0,0.,12.0
1979-03-01 21:55:18.960 ,5,0,8.,12.0,0.,12.0,0.,12.0,0.,12.0
1979-03-01 21:55:30.960 ,4,0,9.,12.0,0.,12.0,0.,12.0,0.,12.0
1979-03-01 21:55:42.960 ,4,0,9.,12.0,0.,12.0,0.,12.0,0.,12.0
1979-03-01 21:55:54.960 ,3,0,9.,12.0,0.,12.0,0.,12.0,0.,12.0
1979-03-01 21:56:06.960 ,3,0,3.,12.0,0.,12.0,0.,12.0,0.,12.0
1979-03-01 21:56:18.960 ,2,0,5.,12.0,0.,12.0,0.,12.0,0.,12.0
1979-03-01 21:56:30.960 ,2,0,2.,12.0,0.,12.0,0.,12.0,0.,12.0
1979-03-01 21:56:42.960 ,1,0,3.,12.0,0.,12.0,0.,12.0,0.,12.0
1979-03-01 21:56:54.960 ,1,0,1.,12.0,0.,12.0,0.,12.0,0.,12.0
1979-03-01 21:57:06.960 ,0,0,2.,12.0,0.,12.0,0.,12.0,0.,12.0
1979-03-01 21:57:18.960 ,0,0,4.,12.0,0.,12.0,0.,12.0,0.,12.0
1979-03-01 21:57:30.960 ,0,0,1.,12.0,0.,12.0,0.,12.0,0.,12.0
1979-03-01 21:57:42.960 ,0,0,6.,12.0,0.,12.0,0.,12.0,0.,12.0
1979-03-01 21:57:54.960 ,1,0,3.,12.0,0.,12.0,0.,12.0,0.,12.0
1979-03-01 21:58:06.960 ,1,0,3.,12.0,0.,12.0,0.,12.0,0.,12.0
1979-03-01 21:58:18.960 ,2,0,5.,12.0,0.,12.0,0.,12.0,0.,12.0
1979-03-01 21:58:30.960 ,2,0,1.,12.0,0.,12.0,0.,12.0,0.,12.0
1979-03-01 21:58:42.960 ,3,0,3.,12.0,0.,12.0,0.,12.0,0.,12.0
1979-03-01 21:58:54.960 ,3,0,6.,12.0,0.,12.0,0.,12.0,0.,12.0
1979-03-01 21:59:06.960 ,4,0,14.,12.0,0.,12.0,0.,12.0,0.,12.0
1979-03-01 21:59:18.960 ,4,0,4.,12.0,0.,12.0,0.,12.0,0.,12.0
1979-03-01 21:59:30.960 ,5,0,3.,12.0,0.,12.0,0.,12.0,0.,12.0
1979-03-01 21:59:42.960 ,5,0,1.,12.0,0.,12.0,0.,12.0,0.,12.0
1979-03-01 21:59:54.960 ,6,0,2.,12.0,0.,12.0,0.,12.0,0.,12.0
1979-03-01 22:00:06.960 ,6,0,1.,12.0,0.,12.0,0.,12.0,0.,12.0
1979-03-01 22:00:18.960 ,7,0,1.,12.0,0.,12.0,0.,12.0,0.,12.0
1979-03-01 22:00:30.960 ,7,0,0.,12.0,0.,12.0,0.,12.0,0.,12.0
1979-03-01 22:00:42.960 ,7,0,0.,12.0,0.,12.0,0.,12.0,0.,12.0
1979-03-01 22:00:54.960 ,7,0,0.,12.0,0.,12.0,0.,12.0,0.,12.0
1979-03-01 22:01:06.960 ,6,0,0.,12.0,0.,12.0,0.,12.0,0.,12.0
1979-03-01 22:01:18.960 ,6,0,1.,12.0,0.,12.0,0.,12.0,0.,12.0
1979-03-01 22:01:30.960 ,5,0,3.,12.0,0.,12.0,0.,12.0,0.,12.0
1979-03-01 22:01:42.960 ,5,0,1.,12.0,0.,12.0,0.,12.0,0.,12.0
1979-03-01 22:01:54.960 ,4,0,3.,12.0,0.,12.0,0.,12.0,0.,12.0
1979-03-01 22:02:06.960 ,4,0,10.,12.0,0.,12.0,0.,12.0,0.,12.0
1979-03-01 22:02:18.960 ,3,0,7.,12.0,0.,12.0,0.,12.0,0.,12.0
1979-03-01 22:02:30.960 ,3,0,5.,12.0,0.,12.0,0.,12.0,0.,12.0
1979-03-01 22:02:42.960 ,2,0,10.,12.0,0.,12.0,0.,12.0,0.,12.0
1979-03-01 22:02:54.960 ,2,0,8.,12.0,0.,12.0,0.,12.0,0.,12.0
1979-03-01 22:03:06.960 ,1,0,5.,12.0,0.,12.0,0.,12.0,0.,12.0
1979-03-01 22:03:18.960 ,1,0,2.,12.0,0.,12.0,0.,12.0,0.,12.0
1979-03-01 22:03:30.960 ,0,0,4.,12.0,0.,12.0,0.,12.0,0.,12.0
1979-03-01 22:03:42.960 ,0,0,1.,12.0,0.,12.0,0.,12.0,0.,12.0
1979-03-01 22:03:54.960 ,0,0,6.,12.0,0.,12.0,0.,12.0,0.,12.0
1979-03-01 22:04:06.960 ,0,0,2.,12.0,0.,12.0,0.,12.0,0.,12.0
1979-03-01 22:04:18.960 ,1,0,3.,12.0,0.,12.0,0.,12.0,0.,12.0
1979-03-01 22:04:30.960 ,1,0,4.,12.0,0.,12.0,0.,12.0,0.,12.0
1979-03-01 22:04:42.960 ,2,0,7.,12.0,0.,12.0,0.,12.0,0.,12.0
1979-03-01 22:04:54.960 ,2,0,7.,12.0,0.,12.0,0.,12.0,0.,12.0
1979-03-01 22:05:06.960 ,3,0,2.,12.0,0.,12.0,0.,12.0,0.,12.0
1979-03-01 22:05:18.960 ,3,0,4.,12.0,0.,12.0,0.,12.0,0.,12.0
1979-03-01 22:05:30.960 ,4,0,2.,12.0,0.,12.0,0.,12.0,0.,12.0
1979-03-01 22:05:42.960 ,4,0,1.,12.0,0.,12.0,0.,12.0,0.,12.0
1979-03-01 22:05:54.960 ,5,0,1.,12.0,0.,12.0,0.,12.0,0.,12.0
1979-03-01 22:06:06.960 ,5,0,4.,12.0,0.,12.0,0.,12.0,0.,12.0
1979-03-01 22:06:18.960 ,6,0,2.,12.0,0.,12.0,0.,12.0,0.,12.0
1979-03-01 22:06:30.960 ,6,0,1.,12.0,0.,12.0,0.,12.0,0.,12.0
1979-03-01 22:06:42.960 ,7,0,2.,12.0,0.,12.0,0.,12.0,0.,12.0
1979-03-01 22:06:54.960 ,7,0,0.,12.0,0.,12.0,0.,12.0,0.,12.0
1979-03-01 22:07:06.960 ,7,0,0.,12.0,0.,12.0,0.,12.0,0.,12.0
1979-03-01 22:07:18.960 ,7,0,0.,12.0,0.,12.0,0.,12.0,0.,12.0
1979-03-01 22:07:30.960 ,6,0,0.,12.0,0.,12.0,0.,12.0,0.,12.0
1979-03-01 22:07:42.960 ,6,0,2.,12.0,0.,12.0,0.,12.0,0.,12.0
1979-03-01 22:07:54.960 ,5,0,2.,12.0,0.,12.0,0.,12.0,0.,12.0
1979-03-01 22:08:06.960 ,5,0,7.,12.0,0.,12.0,0.,12.0,0.,12.0
1979-03-01 22:08:18.960 ,4,0,4.,12.0,0.,12.0,0.,12.0,0.,12.0
1979-03-01 22:08:30.960 ,4,0,0.,12.0,0.,12.0,0.,12.0,0.,12.0
1979-03-01 22:08:42.960 ,3,0,1.,12.0,0.,12.0,0.,12.0,0.,12.0
1979-03-01 22:08:54.960 ,3,0,4.,12.0,0.,12.0,0.,12.0,0.,12.0
1979-03-01 22:09:06.960 ,2,0,2.,12.0,0.,12.0,0.,12.0,0.,12.0
1979-03-01 22:09:18.960 ,2,0,1.,12.0,0.,12.0,0.,12.0,0.,12.0
1979-03-01 22:09:30.960 ,1,0,0.,12.0,0.,12.0,0.,12.0,0.,12.0
1979-03-01 22:09:42.960 ,1,0,5.,12.0,0.,12.0,0.,12.0,0.,12.0
1979-03-01 22:09:54.960 ,0,0,5.,12.0,0.,12.0,0.,12.0,0.,12.0
1979-03-01 22:10:06.960 ,0,0,4.,12.0,0.,12.0,0.,12.0,0.,12.0
1979-03-01 22:10:18.960 ,0,0,7.,12.0,0.,12.0,0.,12.0,0.,12.0
1979-03-01 22:10:30.960 ,0,0,10.,12.0,0.,12.0,0.,12.0,0.,12.0
1979-03-01 22:10:42.960 ,1,0,5.,12.0,0.,12.0,0.,12.0,0.,12.0
1979-03-01 22:10:54.960 ,1,0,4.,12.0,0.,12.0,0.,12.0,0.,12.0
1979-03-01 22:11:06.960 ,2,0,3.,12.0,0.,12.0,0.,12.0,0.,12.0
1979-03-01 22:11:18.960 ,2,0,5.,12.0,0.,12.0,0.,12.0,0.,12.0
1979-03-01 22:11:30.960 ,3,0,4.,12.0,0.,12.0,0.,12.0,0.,12.0
1979-03-01 22:11:42.960 ,3,0,1.,12.0,0.,12.0,0.,12.0,0.,12.0
1979-03-01 22:11:54.960 ,4,0,2.,12.0,0.,12.0,0.,12.0,0.,12.0
1979-03-01 22:12:06.960 ,4,0,1.,12.0,0.,12.0,0.,12.0,0.,12.0
1979-03-01 22:12:18.960 ,5,0,0.,12.0,0.,12.0,0.,12.0,0.,12.0
1979-03-01 22:12:30.960 ,5,0,1.,12.0,0.,12.0,0.,12.0,0.,12.0
1979-03-01 22:12:42.960 ,6,0,5.,12.0,0.,12.0,0.,12.0,0.,12.0
1979-03-01 22:12:54.960 ,6,0,6.,12.0,0.,12.0,0.,12.0,0.,12.0
1979-03-01 22:13:06.960 ,7,0,3.,12.0,0.,12.0,0.,12.0,0.,12.0
1979-03-01 22:13:18.960 ,7,0,0.,12.0,0.,12.0,0.,12.0,0.,12.0
1979-03-01 22:13:30.960 ,7,0,0.,12.0,0.,12.0,0.,12.0,0.,12.0
1979-03-01 22:13:42.960 ,7,0,0.,12.0,0.,12.0,0.,12.0,0.,12.0
1979-03-01 22:13:54.960 ,6,0,0.,12.0,0.,12.0,0.,12.0,0.,12.0
1979-03-01 22:14:06.960 ,6,0,2.,12.0,0.,12.0,0.,12.0,0.,12.0
1979-03-01 22:14:18.960 ,5,0,4.,12.0,0.,12.0,0.,12.0,0.,12.0
1979-03-01 22:14:30.960 ,5,0,1.,12.0,0.,12.0,0.,12.0,0.,12.0
1979-03-01 22:14:42.960 ,4,0,3.,12.0,0.,12.0,0.,12.0,0.,12.0
1979-03-01 22:14:54.960 ,4,0,0.,12.0,0.,12.0,0.,12.0,0.,12.0
1979-03-01 22:15:06.960 ,3,0,2.,12.0,0.,12.0,0.,12.0,0.,12.0
1979-03-01 22:15:18.960 ,3,0,1.,12.0,0.,12.0,0.,12.0,0.,12.0
1979-03-01 22:15:30.960 ,2,0,0.,12.0,0.,12.0,0.,12.0,0.,12.0
1979-03-01 22:15:42.960 ,2,0,2.,12.0,0.,12.0,0.,12.0,0.,12.0
1979-03-01 22:15:54.960 ,1,0,1.,12.0,0.,12.0,0.,12.0,0.,12.0
1979-03-01 22:16:06.960 ,1,0,2.,12.0,0.,12.0,0.,12.0,0.,12.0
1979-03-01 22:16:18.960 ,0,0,2.,12.0,0.,12.0,0.,12.0,0.,12.0
1979-03-01 22:16:30.960 ,0,0,6.,12.0,0.,12.0,0.,12.0,0.,12.0
1979-03-01 22:16:42.960 ,0,0,3.,12.0,0.,12.0,0.,12.0,0.,12.0
1979-03-01 22:16:54.960 ,0,0,9.,12.0,0.,12.0,0.,12.0,0.,12.0
1979-03-01 22:17:06.960 ,1,0,4.,12.0,0.,12.0,0.,12.0,0.,12.0
1979-03-01 22:17:18.960 ,1,0,3.,12.0,0.,12.0,0.,12.0,0.,12.0
1979-03-01 22:17:30.960 ,2,0,0.,12.0,0.,12.0,0.,12.0,0.,12.0
1979-03-01 22:17:42.960 ,2,0,2.,12.0,0.,12.0,0.,12.0,0.,12.0
1979-03-01 22:17:54.960 ,3,0,1.,12.0,0.,12.0,0.,12.0,0.,12.0
1979-03-01 22:18:06.960 ,3,0,1.,12.0,0.,12.0,0.,12.0,0.,12.0
1979-03-01 22:18:18.960 ,4,0,2.,12.0,0.,12.0,0.,12.0,0.,12.0